GW3493 Weather Reports


time (UTC)temp
C
wind
direction
speed
KPH
gust
KPH
rain 1hr
cm
rain 24hr
cm
rain mn
cm
humidity
%
barometer
mb
20260505184216 22 259 4.8 12.9 0.00 0.00 0.00 47 1006.6
20260505183238 22 215 8.0 11.3 0.00 0.00 0.00 46 1006.5
20260505182215 22 244 6.4 16.1 0.00 0.00 0.00 45 1006.4
20260505181217 23 225 6.4 11.3 0.00 0.00 0.00 45 1006.5
20260505180135 23 217 4.8 20.9 0.00 0.00 0.00 44 1006.4
20260505175156 22 235 6.4 12.9 0.00 0.00 0.00 45 1006.5
20260505174218 21 231 6.4 16.1 0.00 0.00 0.00 47 1006.6
20260505173239 21 257 4.8 11.3 0.00 0.00 0.00 49 1006.6
20260505172157 21 267 6.4 14.5 0.00 0.00 0.00 49 1006.5
20260505171218 21 257 4.8 12.9 0.00 0.00 0.00 49 1006.2
20260505170135 21 263 4.8 14.5 0.00 0.00 0.00 48 1006.1
20260505165156 21 235 8.0 14.5 0.00 0.00 0.00 47 1006.2
20260505164218 22 251 6.4 17.7 0.00 0.00 0.00 47 1006.1
20260505163259 22 239 8.0 17.7 0.00 0.00 0.00 46 1006.2
20260505162157 22 257 4.8 14.5 0.00 0.00 0.00 47 1006.4
20260505161218 22 231 8.0 16.1 0.00 0.00 0.00 46 1006.4
20260505160136 21 243 6.4 16.1 0.00 0.00 0.00 48 1006.4
20260505153239 21 243 4.8 12.9 0.00 0.00 0.00 50 1006.5
20260505152156 21 247 6.4 12.9 0.00 0.00 0.00 51 1006.3
20260505151218 21 253 6.4 17.7 0.00 0.00 0.00 50 1006.3
20260505150136 21 283 6.4 20.9 0.00 0.00 0.00 51 1006.3
20260505140136 20 221 8.0 17.7 0.00 0.00 0.00 54 1006.5
20260505130137 18 249 4.8 14.5 0.00 0.00 0.00 56 1006.7
20260505124136 18 263 4.8 14.5 0.00 0.00 0.00 58 1006.6
20260505123241 18 231 4.8 14.5 0.00 0.00 0.00 59 1006.7
20260505122159 17 255 3.2 9.7 0.00 0.00 0.00 60 1006.8
20260505121220 17 240 1.6 6.4 0.00 0.00 0.00 61 1006.8
20260505120158 17 261 4.8 6.4 0.00 0.00 0.00 61 1006.8
20260505114805 17 239 4.8 11.3 0.00 0.00 0.00 61 1006.7
20260505113723 17 242 3.2 9.7 0.00 0.00 0.00 61 1006.7
20260505112725 17 267 3.2 4.8 0.00 0.00 0.00 63 1006.7
20260505111642 17 289 3.2 6.4 0.00 0.00 0.00 62 1006.5
20260505110723 17 287 3.2 11.3 0.00 0.00 0.00 62 1006.4
20260505101704 16 243 3.2 12.9 0.00 0.00 0.00 65 1005.7
20260505100705 16 250 3.2 12.9 0.00 0.00 0.00 65 1005.6
20260505095623 16 265 3.2 9.7 0.00 0.00 0.00 65 1005.6
20260505094645 16 255 4.8 12.9 0.00 0.00 0.00 66 1005.4
20260505093706 16 248 1.6 11.3 0.00 0.00 0.00 67 1005.5
20260505092748 16 250 4.8 11.3 0.00 0.00 0.00 66 1005.3
20260505091645 16 266 3.2 11.3 0.00 0.00 0.00 67 1005.3
20260505090705 16 267 6.4 12.9 0.00 0.00 0.00 67 1005.3
20260505085643 16 256 3.2 11.3 0.00 0.00 0.00 69 1005.4
20260505084645 15 275 1.6 9.7 0.00 0.00 0.00 69 1005.3
20260505083706 15 275 1.6 12.9 0.00 0.00 0.00 70 1005.2
20260505082747 15 278 1.6 9.7 0.00 0.00 0.00 72 1005.2
20260505081645 15 254 1.6 6.4 0.00 0.00 0.00 73 1005.1
20260505080726 15 272 1.6 6.4 0.00 0.00 0.00 75 1005.1
20260505075625 15 266 3.2 6.4 0.00 0.00 0.00 75 1004.9
20260505074646 15 273 3.2 4.8 0.00 0.00 0.00 76 1004.9
20260505073707 15 279 1.6 4.8 0.00 0.00 0.00 76 1005.0
20260505072746 15 263 3.2 6.4 0.00 0.00 0.00 75 1005.0
20260505071644 15 250 1.6 4.8 0.00 0.00 0.00 77 1005.1
20260505070705 15 265 1.6 4.8 0.00 0.00 0.00 78 1005.3
20260505065622 16 244 3.2 9.7 0.00 0.00 0.00 74 1005.4
20260505064644 17 266 3.2 6.4 0.00 0.00 0.00 61 1005.6
20260505063706 17 251 4.8 14.5 0.00 0.00 0.00 58 1005.8
20260505062727 17 268 3.2 11.3 0.00 0.00 0.00 57 1005.0
20260505061645 17 258 3.2 9.7 0.00 0.00 0.00 57 1004.8
20260505060707 17 253 3.2 6.4 0.00 0.00 0.00 57 1005.0
20260505055626 17 266 3.2 11.3 0.00 0.00 0.00 57 1005.0
20260505054647 17 263 3.2 9.7 0.00 0.00 0.00 58 1005.1
20260505053729 17 266 1.6 6.4 0.00 0.00 0.00 59 1005.1
20260505052730 17 279 1.6 6.4 0.00 0.00 0.00 59 1005.2
20260505051648 17 271 1.6 6.4 0.00 0.00 0.00 59 1005.4
20260505050710 17 265 1.6 4.8 0.00 0.00 0.00 59 1005.5
20260505041650 16 260 1.6 4.8 0.00 0.00 0.00 62 1005.4
20260505040712 16 302 0.0 1.6 0.00 0.00 0.00 63 1005.4
20260505035630 16 287 0.0 3.2 0.00 0.00 0.00 62 1005.4
20260505034652 16 302 0.0 1.6 0.00 0.00 0.00 62 1005.4
20260505033713 16 302 0.0 1.6 0.00 0.00 0.00 61 1005.4
20260505032735 16 301 1.6 3.2 0.00 0.00 0.00 61 1005.5
20260505031652 16 305 0.0 1.6 0.00 0.00 0.00 60 1005.6
20260505030734 17 308 0.0 3.2 0.00 0.00 0.00 60 1005.7
20260505025632 17 274 1.6 4.8 0.00 0.00 0.00 59 1005.8
20260505024653 17 279 1.6 11.3 0.00 0.00 0.00 59 1005.7
20260505023734 17 291 1.6 3.2 0.00 0.00 0.00 58 1005.7
20260505022735 17 274 1.6 6.4 0.00 0.00 0.00 57 1005.8
20260505021733 17 283 1.6 4.8 0.00 0.00 0.00 57 1005.8
20260505020714 18 290 3.2 6.4 0.00 0.00 0.00 56 1005.8
20260505015633 18 273 1.6 4.8 0.00 0.00 0.00 56 1005.8
20260505014653 18 280 1.6 11.3 0.00 0.00 0.00 56 1005.8
20260505013715 18 270 3.2 9.7 0.00 0.00 0.00 56 1005.7
20260505012736 18 279 1.6 4.8 0.00 0.00 0.00 56 1005.6
20260505011654 18 273 3.2 6.4 0.00 0.00 0.00 55 1005.5
20260505010715 18 260 3.2 11.3 0.00 0.00 0.00 55 1005.5
20260505005633 18 266 1.6 6.4 0.00 0.00 0.00 54 1005.4
20260505004654 18 254 3.2 4.8 0.00 0.00 0.00 54 1005.1
20260505003716 18 266 3.2 6.4 0.00 0.00 0.00 54 1005.0
20260505002736 18 279 3.2 6.4 0.00 0.00 0.00 53 1004.9
20260505001654 19 271 3.2 6.4 0.00 0.00 0.00 52 1004.8
20260505000716 19 270 3.2 11.3 0.00 0.00 0.00 51 1004.8
20260504235653 20 259 3.2 9.7 0.00 0.00 0.00 51 1004.8
20260504234655 20 263 4.8 9.7 0.00 0.00 0.00 50 1004.7
20260504233716 20 272 3.2 6.4 0.00 0.00 0.00 50 1004.8
20260504232736 20 273 4.8 9.7 0.00 0.00 0.00 50 1005.0
20260504231655 20 280 3.2 4.8 0.00 0.00 0.00 51 1005.1
20260504230716 20 237 4.8 11.3 0.00 0.00 0.00 52 1005.0
20260504225742 20 260 3.2 12.9 0.00 0.00 0.00 53 1005.0
20260504224659 20 256 3.2 9.7 0.00 0.00 0.00 55 1005.1
20260504223701 20 286 3.2 6.4 0.00 0.00 0.00 58 1005.3
20260504222737 21 255 4.8 6.4 0.00 0.00 0.00 47 1005.1
20260504221739 21 244 3.2 6.4 0.00 0.00 0.00 45 1005.1
20260504220657 21 253 4.8 11.3 0.00 0.00 0.00 44 1005.2
20260504215718 21 257 6.4 16.1 0.00 0.00 0.00 44 1005.0
20260504214636 21 277 1.6 3.2 0.00 0.00 0.00 44 1005.1
20260504213657 21 259 3.2 9.7 0.00 0.00 0.00 45 1005.0
20260504212718 22 261 3.2 9.7 0.00 0.00 0.00 44 1005.0
20260504211739 22 251 4.8 11.3 0.00 0.00 0.00 44 1005.1
20260504210737 21 245 3.2 9.7 0.00 0.00 0.00 44 1005.0
20260504205719 22 278 4.8 11.3 0.00 0.00 0.00 43 1004.8
20260504204636 23 247 6.4 16.1 0.00 0.00 0.00 40 1004.9
20260504203658 22 264 6.4 17.7 0.00 0.00 0.00 43 1004.8
20260504202719 22 220 6.4 17.7 0.00 0.00 0.00 43 1005.1
20260504201800 22 275 6.4 12.9 0.00 0.00 0.00 44 1005.3
20260504200658 22 264 8.0 14.5 0.00 0.00 0.00 42 1005.5
20260504195720 22 238 4.8 9.7 0.00 0.00 0.00 42 1005.4
20260504194629 23 226 9.7 17.7 0.00 0.00 0.00 40 1005.5
20260504193710 23 238 4.8 9.7 0.00 0.00 0.00 42 1005.7
20260504192712 22 239 4.8 20.9 0.00 0.00 0.00 43 1005.5
20260504191733 22 263 4.8 16.1 0.00 0.00 0.00 43 1005.7
20260504190651 22 238 3.2 14.5 0.00 0.00 0.00 43 1005.7
20260504185712 22 259 6.4 14.5 0.00 0.00 0.00 42 1005.9
20260504184650 22 265 4.8 9.7 0.00 0.00 0.00 43 1005.9